Back to catalog

SL-8 DEB

AliveLEO
NORAD 1478·DEBRIS·🇷🇺 Russia

Launched Mar 15, 1965 from Baikonur Cosmodrome

Loading…

Next Passes (next 24 hours)

TLE

FreshSource: Space-Track

Epoch: Sep 14, 2026, 10:57 UTC

1 01478U 65020BC  26257.45675276  .00000417  00000-0  26143-3 0  9998
2 01478  56.0750  54.0074 0586616  21.4168 341.0279 13.56164952936982

Track SL-8 DEB in real time with AllMySat

Download on the App Store